STARLINK-34299, 64383

Orbit data source: Space-Track

STARLINK-34299, 64383 is a payload satellite owned by SpaceX/Seattle (US) in LEO that was launched on Fri, 13 Jun 2025 UTC via an FALCON 9 launch vehicle from the Air Force Eastern Test Range (AFETR). Payload-class satellites include a variety of spacecraft equipped with specific instruments for various scientific and technological missions. These include communications satellites like Starlink; space stations such as the ISS; scientific satellites like the Hubble; Earth observation satellites from companies like Planet Labs, Umbra, and HawkEye 360; GPS; miniature CubeSats for education and research; and military/defense satellites.

Loading next visibility...
Identifier
64383, 2025-127P
Orbit
LEO
Country
Flag of USUS
Related business
Manufacturer
SpaceX/Seattle
Mission
Operational Commercial Communications
Bus & Motor
STARLINK V2MO, Unknown motor
Mass
575 kg wet, ~530 kg dry
Launch date (UTC)
2025-06-13 (10 months ago)
Launch vehicle
FALCON 9
Launch site
Air Force Eastern Test Range (AFETR)
Object type
Payload
Rocket body
Debris
Shape & HBR
Box + 2 Pan, 17.7 m
Radar Cross Section
36.964 m², Large (>1 m²)

Expand to show TLE details & history
Last TLE update: 12 hours ago

TLE from 12 hours ago
0 STARLINK-34299
1 64383U 25127P   26095.17772409  .00026315  00000-0  96138-3 0  9997
2 64383  43.0003  30.5792 0001021 280.3756  79.6981 15.27614400 46467
Epoch: 2026-04-05T04:15Z
TLE epoch observation values (Epoch: 2026-04-05T04:15:55.361Z)
Latitude
0.00002°
Longitude
133.11166°
Altitude
482.596 km
Speed
7.626 km/s
True Right ascension
02h 02m 19s
True Declination
0° 00' 00"
Sunlit
Object was in daylight at epoch
Visualization orbit readout
Latitude
Unknown
Longitude
Unknown
Altitude
Unknown
Speed
Unknown
Apparent Right ascension
Unknown
Apparent Declination
Unknown
Sunlit
N/A
Visualization observer readout
Local Sidereal Time
22:15:48
Azimuth
Unknown
Elevation
Unknown
Doppler factor
Unknown
Orbital elements
Apogee altitude
485.592 km
Perigee altitude
484.191 km
Semi-major axis
6,863.028 km
Eccentricity
0.0001
Inclination
43.0003°
RAAN
30.5792°
Arg. of periapsis
280.3756°
True anomaly
79.70961°
Mean anomaly
79.6981°
Eccentric anomaly
79.70386°
Mean motion
3.81742 °/min
Orbital period
94.3 mins
BSTAR
0.00096138
Loading maneuver chart data...
Computing Atmospheric mass density...
Loading historical data...
Loading historical data...
Loading historical data...
Loading historical data...
Loading historical data...
Loading historical data...
Loading historical data...

Documentation

Showing up to 5 results
|